Location: Sungai Liu
(2.3667°N, 113.8667°E)
Time: 13:10:06
(UTC+00:00)

SWIFT - Pass Details

Date: 20 May 2022
Orbit: 539 x 554 km, 20.6° (Epoch: 06 July)

Event Time Altitude Azimuth Distance (km) Brightness Sun altitude
Exits shadow 20:11:23 28° 30° (NNE) 1,043 4.1 -29.3°
Drops below altitude 10° 20:14:41 10° 80° (E) 1,813 5.8 -28.5°
Sets 20:17:11 0° 91° (E) 2,705 6.8 -28.0°
